This is the latest recevied weather packets stored in our database for station/object W4KAB. If no packets are shown the sender has not sent any weather packets the latest 1 day(s).
| Time | Temp. | Humidity | Pressure | Rain* | Wind** | Luminosity | Snow |
|---|---|---|---|---|---|---|---|
| 1778000716 | 25° C | 44% | 1017.1 hPa | 0 mm | 0.45 m/s, 237° | 722 W/m² | - |
| 1778000413 | 24.44° C | 43% | 1017.1 hPa | 0 mm | 0 m/s | 676 W/m² | - |
| 1778000108 | 24.44° C | 44% | 1017.1 hPa | 0 mm | 1.34 m/s, 301° | 610 W/m² | - |
| 1777999804 | 23.89° C | 44% | 1017.4 hPa | 0 mm | 0.45 m/s, 253° | 615 W/m² | - |
| 1777999500 | 24.44° C | 45% | 1017.3 hPa | 0 mm | 0 m/s | 595 W/m² | - |
| 1777999198 | 23.89° C | 45% | 1017.7 hPa | 0 mm | 0 m/s | 556 W/m² | - |
| 1777998896 | 23.89° C | 43% | 1017.5 hPa | 0 mm | 0.45 m/s, 18° | 545 W/m² | - |
| 1777998596 | 23.89° C | 44% | 1017.7 hPa | 0 mm | 0.45 m/s, 272° | 506 W/m² | - |
| 1777998291 | 23.89° C | 44% | 1017.7 hPa | 0 mm | 0 m/s | 468 W/m² | - |
| 1777997988 | 23.89° C | 46% | 1017.8 hPa | 0 mm | 0 m/s | 412 W/m² | - |
| 1777997684 | 23.33° C | 42% | 1017.5 hPa | 0 mm | 0 m/s | 483 W/m² | - |
| 1777997382 | 22.78° C | 46% | 1017.7 hPa | 0 mm | 0.45 m/s, 255° | 488 W/m² | - |
| 1777997080 | 23.33° C | 45% | 1017.9 hPa | 0 mm | 0 m/s | 495 W/m² | - |
| 1777996776 | 23.33° C | 45% | 1018 hPa | 0 mm | 0 m/s | 499 W/m² | - |
| 1777996473 | 23.33° C | 46% | 1017.7 hPa | 0 mm | 0 m/s | 500 W/m² | - |
| 1777996169 | 23.33° C | 44% | 1017.8 hPa | 0 mm | 0 m/s | 506 W/m² | - |
| 1777995866 | 23.33° C | 43% | 1017.8 hPa | 0 mm | 0 m/s | 557 W/m² | - |
| 1777995562 | 23.33° C | 43% | 1017.8 hPa | 0 mm | 0 m/s | 627 W/m² | - |
| 1777995260 | 23.33° C | 46% | 1017.7 hPa | 0 mm | 0.89 m/s, 242° | 623 W/m² | - |
| 1777994956 | 22.78° C | 47% | 1017.6 hPa | 0 mm | 0 m/s | 670 W/m² | - |
| 1777994648 | 22.78° C | 45% | 1017.8 hPa | 0 mm | 0.89 m/s, 262° | 712 W/m² | - |
| 1777994348 | 22.78° C | 45% | 1017.7 hPa | 0 mm | 0 m/s | 703 W/m² | - |
| 1777994044 | 22.22° C | 48% | 1017.7 hPa | 0 mm | 0 m/s | 714 W/m² | - |
| 1777993741 | 21.67° C | 45% | 1017.9 hPa | 0 mm | 0.45 m/s, 273° | 749 W/m² | - |
| 1777993438 | 21.67° C | 48% | 1017.7 hPa | 0 mm | 0.89 m/s, 280° | 447 W/m² | - |
* Rain latest hour (hover to see other rain measurements)
** Current wind speed in m/s (hover to see current wind gust speed)